Tracking 19846 objects as of 19-Sep-2019
HD Live streaming from Space Station
objects crossing your sky now

USA 173 DEB

Track USA 173 DEB now!
10-day predictions


NORAD ID: 28097
Int'l Code: 2003-054C
Perigee: 833.0 km
Apogee: 1,394.2 km
Inclination: 63.4 °
Period: 107.4 minutes
Semi major axis: 7484 km
RCS: Unknown
Launch date: December 2, 2003
Source: United States (US)
Launch site: AIR FORCE WESTERN TEST RANGE (AFWTR)

Note: This is SATELLITE DEBRIS
aabbcc
Your satellite tracking list
Your tracking list is empty




NASA's NSSDC Master Catalog

Two Line Element Set (TLE):
1 28097U 03054C   19257.15370243 0.00000000  00000-0  00000-0 0    00
2 28097  63.4122  26.6440 0374892 358.1821   1.8178 13.40756367    06
Source of the keplerian elements: McCants